Date,TemperatureHighF,TemperatureAvgF,TemperatureLowF,DewpointHighF,DewpointAvgF,DewpointLowF,HumidityHigh,HumidityAvg,HumidityLow,PressureMaxIn,PressureMinIn,WindSpeedMaxMPH,WindSpeedAvgMPH,GustSpeedMaxMPH,PrecipitationSumIn
2013-8-1,59,48,41,-100,-100,-100,0,0,100,0.00,40.00,0,-999,0,0.02
2013-8-2,55,46,37,-100,-100,-100,0,0,100,0.00,40.00,0,-999,0,0.02
2013-8-3,60,48,38,-100,-100,-100,0,0,100,0.00,40.00,0,-999,0,0.01
2013-8-4,68,54,41,-100,-100,-100,0,0,100,0.00,40.00,0,-999,0,0.01
2013-8-5,67,54,43,-100,-100,-100,0,0,100,0.00,40.00,0,-999,0,0.01
2013-8-6,65,54,45,-100,-100,-100,0,0,100,0.00,40.00,0,-999,0,0.00
2013-8-7,70,53,43,-100,-100,-100,0,0,100,0.00,40.00,0,-999,0,0.01
2013-8-8,66,54,43,-100,-100,-100,0,0,100,0.00,40.00,0,-999,0,0.00
2013-8-9,64,53,45,-100,-100,-100,0,0,100,0.00,40.00,0,-999,0,0.00
2013-8-10,70,56,44,-100,-100,-100,0,0,100,0.00,40.00,0,-999,0,0.00
2013-8-11,67,55,44,-100,-100,-100,0,0,100,0.00,40.00,0,-999,0,0.00
2013-8-12,70,50,43,-100,-100,-100,0,0,100,0.00,40.00,0,-999,0,0.00
2013-8-13,68,51,42,-100,-100,-100,0,0,100,0.00,40.00,0,-999,0,0.00
2013-8-14,71,52,44,-100,-100,-100,0,0,100,0.00,40.00,0,-999,0,0.00
2013-8-15,75,60,48,-100,-100,-100,0,0,100,0.00,40.00,0,-999,0,0.01
2013-8-16,77,65,51,-100,-100,-100,0,0,100,0.00,40.00,0,-999,0,0.01
2013-8-17,72,57,48,-100,-100,-100,0,0,100,0.00,40.00,0,-999,0,0.00
2013-8-18,72,62,48,-100,-100,-100,0,0,100,0.00,40.00,0,-999,0,0.00
2013-8-19,73,61,55,-100,-100,-100,0,0,100,0.00,40.00,0,-999,0,0.00
2013-8-20,71,60,49,-100,-100,-100,0,0,100,0.00,40.00,0,-999,0,0.00
2013-8-21,72,53,41,-100,-100,-100,0,0,100,0.00,40.00,0,-999,0,0.00
2013-8-22,67,57,50,-100,-100,-100,0,0,100,0.00,40.00,0,-999,0,0.00
2013-8-23,65,56,48,-100,-100,-100,0,0,100,0.00,40.00,0,-999,0,0.00
2013-8-24,66,53,42,-100,-100,-100,0,0,100,0.00,40.00,0,-999,0,0.00
2013-8-25,70,56,47,-100,-100,-100,0,0,100,0.00,40.00,0,-999,0,0.00
2013-8-26,66,57,48,-100,-100,-100,0,0,100,0.00,40.00,0,-999,0,0.01
2013-8-27,68,54,45,-100,-100,-100,0,0,100,0.00,40.00,0,-999,0,0.00
2013-8-28,63,57,48,-100,-100,-100,0,0,100,0.00,40.00,0,-999,0,0.00
2013-8-29,70,57,48,-100,-100,-100,0,0,100,0.00,40.00,0,-999,0,0.01
2013-8-30,70,61,52,-100,-100,-100,0,0,100,0.00,40.00,0,-999,0,0.00
2013-8-31,69,52,43,-100,-100,-100,0,0,100,0.00,40.00,0,-999,0,0.00